PTOGG SBSG-SBKG

Flight info

Callsign PTOGG
Flight time 0h 45m
Altitude 10500
Route DCT
Aircraft C208/L-SDFGR/C

Departure

Time 2026-05-09 15:41
Airport Rio Grande do Norte/São Gonçalo do Amarante–Governador Aluízio Alves International Airport (SBSG)

Arrival

Time 2026-05-09 16:26
Airport Presidente João Suassuna Airport (SBKG)
Time Latitude Longitude Altitude Speed Heading
2026-05-09 15:16 -5.76478 -35.37000 272 ft 0 kts
2026-05-09 15:32 -5.76473 -35.37003 272 ft 3 kts 283°
2026-05-09 15:33 -5.76506 -35.37017 272 ft 8 kts 193°
2026-05-09 15:33 -5.76550 -35.37033 272 ft 7 kts 237°
2026-05-09 15:33 -5.76550 -35.37078 272 ft 4 kts 280°
2026-05-09 15:33 -5.76547 -35.37097 272 ft 1 kts 280°
2026-05-09 15:34 -5.76547 -35.37098 272 ft 0 kts 279°
2026-05-09 15:34 -5.76544 -35.37114 272 ft 7 kts 278°
2026-05-09 15:34 -5.76533 -35.37192 272 ft 16 kts 277°
2026-05-09 15:34 -5.76633 -35.37249 272 ft 18 kts 193°
2026-05-09 15:35 -5.76700 -35.37301 272 ft 12 kts 279°
2026-05-09 15:35 -5.76689 -35.37373 272 ft 10 kts 281°
2026-05-09 15:35 -5.76676 -35.37440 272 ft 10 kts 279°
2026-05-09 15:35 -5.76664 -35.37518 272 ft 13 kts 278°
2026-05-09 15:36 -5.76649 -35.37608 272 ft 11 kts 279°
2026-05-09 15:36 -5.76639 -35.37666 272 ft 6 kts 279°
2026-05-09 15:36 -5.76635 -35.37694 272 ft 3 kts 279°
2026-05-09 15:36 -5.76631 -35.37719 272 ft 7 kts 279°
2026-05-09 15:37 -5.76617 -35.37801 272 ft 17 kts 279°
2026-05-09 15:37 -5.76614 -35.37942 272 ft 22 kts 231°
2026-05-09 15:37 -5.76684 -35.37971 272 ft 0 kts 186°
2026-05-09 15:39 -5.76688 -35.37972 272 ft 4 kts 186°
2026-05-09 15:40 -5.76750 -35.37969 272 ft 14 kts 139°
2026-05-09 15:40 -5.76785 -35.37845 272 ft 32 kts 100°
2026-05-09 15:40 -5.76849 -35.37472 272 ft 74 kts 98°
2026-05-09 15:40 -5.76953 -35.36891 380 ft 91 kts 106°
2026-05-09 15:41 -5.77073 -35.36251 627 ft 93 kts 102°
2026-05-09 15:41 -5.77178 -35.35598 811 ft 96 kts 104°
2026-05-09 15:41 -5.77358 -35.34956 933 ft 92 kts 105°
2026-05-09 15:41 -5.77506 -35.34347 1033 ft 89 kts 104°
2026-05-09 15:42 -5.77652 -35.33749 1141 ft 85 kts 105°
2026-05-09 15:42 -5.77808 -35.33196 1273 ft 79 kts 106°
2026-05-09 15:42 -5.77934 -35.32655 1422 ft 82 kts 106°
2026-05-09 15:42 -5.78065 -35.32062 1579 ft 90 kts 107°
2026-05-09 15:43 -5.78331 -35.31518 1730 ft 94 kts 156°
2026-05-09 15:43 -5.78971 -35.31755 1902 ft 115 kts 218°
2026-05-09 15:43 -5.79607 -35.32331 1878 ft 129 kts 213°
2026-05-09 15:43 -5.80315 -35.32941 1885 ft 140 kts 212°
2026-05-09 15:44 -5.81070 -35.33653 1799 ft 155 kts 220°
2026-05-09 15:44 -5.81888 -35.34412 1698 ft 164 kts 219°
2026-05-09 15:44 -5.82736 -35.35216 1601 ft 170 kts 218°
2026-05-09 15:44 -5.83592 -35.36054 1492 ft 174 kts 219°
2026-05-09 15:45 -5.84482 -35.36896 1368 ft 177 kts 220°
2026-05-09 15:45 -5.85356 -35.37695 1453 ft 167 kts 216°
2026-05-09 15:45 -5.86193 -35.38477 1561 ft 161 kts 219°
2026-05-09 15:45 -5.87001 -35.39238 1678 ft 157 kts 217°
2026-05-09 15:46 -5.87790 -35.39980 1801 ft 153 kts 218°
2026-05-09 15:46 -5.88715 -35.40373 1896 ft 142 kts 173°
2026-05-09 15:46 -5.89685 -35.40320 1993 ft 141 kts 179°
2026-05-09 15:46 -5.90686 -35.40346 1998 ft 148 kts 174°
2026-05-09 15:47 -5.91706 -35.40308 2006 ft 148 kts 176°
2026-05-09 15:47 -5.92736 -35.40302 1992 ft 153 kts 179°
2026-05-09 15:47 -5.93818 -35.40276 1974 ft 156 kts 175°
2026-05-09 15:47 -5.94896 -35.40254 1976 ft 153 kts 176°
2026-05-09 15:48 -5.95945 -35.40255 1984 ft 150 kts 175°
2026-05-09 15:48 -5.97001 -35.40226 1988 ft 153 kts 170°
2026-05-09 15:48 -5.98056 -35.40044 1985 ft 155 kts 165°
2026-05-09 15:48 -5.99141 -35.39839 1985 ft 160 kts 164°
2026-05-09 15:49 -6.00231 -35.39627 1971 ft 156 kts 165°
2026-05-09 15:49 -6.01249 -35.39373 1984 ft 150 kts 161°
2026-05-09 15:49 -6.02274 -35.39130 1963 ft 155 kts 164°
2026-05-09 15:49 -6.03319 -35.38869 1971 ft 155 kts 159°
2026-05-09 15:50 -6.04365 -35.38564 1968 ft 159 kts 162°
2026-05-09 15:50 -6.05440 -35.38261 1972 ft 159 kts 162°
2026-05-09 15:50 -6.06490 -35.37971 1973 ft 155 kts 162°
2026-05-09 15:50 -6.07520 -35.37693 1976 ft 151 kts 161°
2026-05-09 15:51 -6.08531 -35.37439 1972 ft 147 kts 162°
2026-05-09 15:51 -6.09510 -35.37188 1971 ft 145 kts 161°
2026-05-09 15:51 -6.10500 -35.37044 1971 ft 149 kts 185°
2026-05-09 15:51 -6.11362 -35.37668 1975 ft 161 kts 226°
2026-05-09 15:52 -6.12513 -35.39147 2020 ft 156 kts 226°
2026-05-09 15:52 -6.13154 -35.39997 2174 ft 151 kts 227°
2026-05-09 15:52 -6.13798 -35.40828 2312 ft 152 kts 225°
2026-05-09 15:53 -6.14630 -35.41931 2521 ft 146 kts 227°
2026-05-09 15:53 -6.15045 -35.42470 2662 ft 143 kts 226°
2026-05-09 15:53 -6.15678 -35.43228 2838 ft 143 kts 227°
2026-05-09 15:53 -6.16282 -35.44062 3027 ft 144 kts 226°
2026-05-09 15:54 -6.16885 -35.44862 3234 ft 146 kts 225°
2026-05-09 15:54 -6.17517 -35.45663 3417 ft 146 kts 227°
2026-05-09 15:54 -6.18148 -35.46470 3609 ft 147 kts 226°
2026-05-09 15:54 -6.18754 -35.47277 3804 ft 143 kts 227°
2026-05-09 15:55 -6.19371 -35.48067 3997 ft 142 kts 226°
2026-05-09 15:55 -6.19892 -35.48897 4181 ft 140 kts 239°
2026-05-09 15:55 -6.20296 -35.49786 4378 ft 139 kts 239°
2026-05-09 15:55 -6.20702 -35.50662 4561 ft 137 kts 238°
2026-05-09 15:56 -6.21113 -35.51529 4743 ft 137 kts 236°
2026-05-09 15:56 -6.21673 -35.52257 4924 ft 128 kts 211°
2026-05-09 15:56 -6.22444 -35.52625 5110 ft 121 kts 194°
2026-05-09 15:56 -6.23216 -35.52928 5297 ft 119 kts 193°
2026-05-09 15:57 -6.23992 -35.53211 5485 ft 118 kts 191°
2026-05-09 15:57 -6.24772 -35.53489 5674 ft 118 kts 192°
2026-05-09 15:57 -6.25538 -35.53763 5864 ft 115 kts 190°
2026-05-09 15:57 -6.26288 -35.54026 6050 ft 113 kts 191°
2026-05-09 15:58 -6.27016 -35.54282 6237 ft 112 kts 190°
2026-05-09 15:58 -6.27752 -35.54541 6430 ft 112 kts 190°
2026-05-09 15:58 -6.28488 -35.54801 6609 ft 112 kts 189°
2026-05-09 15:58 -6.29219 -35.55057 6787 ft 110 kts 189°
2026-05-09 15:59 -6.29931 -35.55307 6968 ft 107 kts 189°
2026-05-09 15:59 -6.30629 -35.55552 7142 ft 105 kts 189°
2026-05-09 15:59 -6.31308 -35.55789 7316 ft 102 kts 188°
2026-05-09 15:59 -6.31968 -35.56020 7488 ft 98 kts 187°
2026-05-09 16:00 -6.32599 -35.56240 7664 ft 93 kts 187°
2026-05-09 16:00 -6.33000 -35.56379 7751 ft 91 kts 187°
2026-05-09 16:00 -6.33792 -35.56655 7884 ft 89 kts 185°
2026-05-09 16:00 -6.34370 -35.56858 7976 ft 91 kts 186°
2026-05-09 16:01 -6.34988 -35.57081 8040 ft 97 kts 187°
2026-05-09 16:01 -6.35648 -35.57318 8121 ft 104 kts 189°
2026-05-09 16:01 -6.36353 -35.57571 8206 ft 110 kts 189°
2026-05-09 16:01 -6.37102 -35.57834 8292 ft 118 kts 190°
2026-05-09 16:02 -6.37895 -35.58113 8376 ft 124 kts 189°
2026-05-09 16:02 -6.39627 -35.58721 8533 ft 139 kts 191°
2026-05-09 16:02 -6.40554 -35.59050 8603 ft 144 kts 192°
2026-05-09 16:03 -6.41499 -35.59383 8664 ft 148 kts 193°
2026-05-09 16:03 -6.42495 -35.59736 8729 ft 152 kts 193°
2026-05-09 16:03 -6.43490 -35.60089 8794 ft 155 kts 193°
2026-05-09 16:03 -6.44512 -35.60451 8850 ft 157 kts 192°
2026-05-09 16:04 -6.45551 -35.60814 8902 ft 158 kts 192°
2026-05-09 16:04 -6.46595 -35.61179 8960 ft 159 kts 194°
2026-05-09 16:04 -6.47646 -35.61553 9014 ft 160 kts 194°
2026-05-09 16:04 -6.48691 -35.61923 9065 ft 161 kts 194°
2026-05-09 16:05 -6.49755 -35.62297 9116 ft 162 kts 194°
2026-05-09 16:05 -6.50820 -35.62674 9168 ft 163 kts 194°
2026-05-09 16:05 -6.51896 -35.63050 9219 ft 164 kts 193°
2026-05-09 16:05 -6.52979 -35.63433 9268 ft 165 kts 192°
2026-05-09 16:06 -6.54062 -35.63812 9319 ft 165 kts 194°
2026-05-09 16:06 -6.55144 -35.64194 9369 ft 165 kts 194°
2026-05-09 16:06 -6.56229 -35.64580 9425 ft 165 kts 193°
2026-05-09 16:06 -6.57299 -35.64953 9482 ft 165 kts 194°
2026-05-09 16:07 -6.58387 -35.65339 9487 ft 167 kts 193°
2026-05-09 16:07 -6.59489 -35.65727 9480 ft 167 kts 195°
2026-05-09 16:07 -6.60578 -35.66113 9497 ft 167 kts 193°
2026-05-09 16:07 -6.61687 -35.66497 9501 ft 170 kts 194°
2026-05-09 16:08 -6.62813 -35.66897 9502 ft 173 kts 195°
2026-05-09 16:08 -6.63952 -35.67304 9498 ft 175 kts 194°
2026-05-09 16:08 -6.65104 -35.67708 9500 ft 175 kts 193°
2026-05-09 16:08 -6.66256 -35.68114 9500 ft 175 kts 194°
2026-05-09 16:09 -6.67407 -35.68521 9506 ft 175 kts 195°
2026-05-09 16:09 -6.68540 -35.68922 9505 ft 175 kts 195°
2026-05-09 16:09 -6.69690 -35.69328 9505 ft 175 kts 193°
2026-05-09 16:09 -6.70840 -35.69734 9503 ft 175 kts 193°
2026-05-09 16:10 -6.71989 -35.70137 9509 ft 175 kts 193°
2026-05-09 16:10 -6.73138 -35.70540 9509 ft 175 kts 193°
2026-05-09 16:10 -6.74286 -35.70948 9508 ft 175 kts 194°
2026-05-09 16:10 -6.75433 -35.71353 9507 ft 174 kts 193°
2026-05-09 16:11 -6.76580 -35.71755 9503 ft 174 kts 193°
2026-05-09 16:11 -6.77709 -35.72152 9502 ft 174 kts 194°
2026-05-09 16:11 -6.78855 -35.72558 9504 ft 174 kts 193°
2026-05-09 16:11 -6.80002 -35.72962 9505 ft 174 kts 194°
2026-05-09 16:12 -6.81145 -35.73367 9505 ft 173 kts 193°
2026-05-09 16:12 -6.82287 -35.73770 9504 ft 173 kts 193°
2026-05-09 16:12 -6.83423 -35.74168 9503 ft 173 kts 194°
2026-05-09 16:12 -6.84558 -35.74571 9500 ft 173 kts 194°
2026-05-09 16:13 -6.85689 -35.74969 9500 ft 172 kts 194°
2026-05-09 16:13 -6.86808 -35.75362 9499 ft 172 kts 195°
2026-05-09 16:13 -6.87937 -35.75763 9502 ft 172 kts 193°
2026-05-09 16:13 -6.89068 -35.76161 9502 ft 172 kts 194°
2026-05-09 16:14 -6.90201 -35.76560 9504 ft 173 kts 195°
2026-05-09 16:14 -6.91343 -35.76966 9504 ft 173 kts 193°
2026-05-09 16:14 -6.92485 -35.77367 9460 ft 176 kts 194°
2026-05-09 16:14 -6.93659 -35.77783 9336 ft 181 kts 194°
2026-05-09 16:15 -6.94846 -35.78205 9217 ft 184 kts 194°
2026-05-09 16:15 -6.96061 -35.78633 9096 ft 186 kts 195°
2026-05-09 16:15 -6.97283 -35.79065 8975 ft 186 kts 195°
2026-05-09 16:15 -6.98508 -35.79499 8850 ft 186 kts 195°
2026-05-09 16:16 -6.99731 -35.79931 8729 ft 186 kts 194°
2026-05-09 16:16 -7.00960 -35.80363 8606 ft 187 kts 195°
2026-05-09 16:16 -7.02189 -35.80799 8484 ft 187 kts 195°
2026-05-09 16:16 -7.03419 -35.81234 8379 ft 187 kts 195°
2026-05-09 16:17 -7.04646 -35.81666 8256 ft 187 kts 195°
2026-05-09 16:17 -7.05872 -35.82100 8138 ft 186 kts 194°
2026-05-09 16:17 -7.07078 -35.82524 8019 ft 186 kts 194°
2026-05-09 16:17 -7.08315 -35.82961 7784 ft 191 kts 194°
2026-05-09 16:18 -7.09579 -35.83408 7553 ft 192 kts 195°
2026-05-09 16:18 -7.10844 -35.83855 7320 ft 193 kts 194°
2026-05-09 16:18 -7.12114 -35.84304 7089 ft 194 kts 194°
2026-05-09 16:18 -7.13386 -35.84752 6858 ft 194 kts 194°
2026-05-09 16:19 -7.14661 -35.85205 6630 ft 194 kts 195°
2026-05-09 16:19 -7.15934 -35.85649 6401 ft 194 kts 194°
2026-05-09 16:19 -7.17204 -35.86098 6155 ft 192 kts 194°
2026-05-09 16:19 -7.18436 -35.86559 5908 ft 188 kts 203°
2026-05-09 16:20 -7.19281 -35.87547 5665 ft 197 kts 246°
2026-05-09 16:20 -7.19587 -35.88880 5423 ft 195 kts 263°
2026-05-09 16:20 -7.19238 -35.90198 5181 ft 198 kts 298°
2026-05-09 16:20 -7.18509 -35.91373 4947 ft 197 kts 307°
2026-05-09 16:21 -7.17702 -35.92480 4702 ft 195 kts 308°
2026-05-09 16:21 -7.16909 -35.93553 4466 ft 192 kts 308°
2026-05-09 16:21 -7.16153 -35.94660 4205 ft 191 kts 295°
2026-05-09 16:21 -7.16046 -35.95955 3924 ft 186 kts 251°
2026-05-09 16:22 -7.16756 -35.96963 3679 ft 172 kts 216°
2026-05-09 16:22 -7.17710 -35.97664 3441 ft 169 kts 207°
2026-05-09 16:22 -7.18712 -35.98292 3205 ft 169 kts 209°
2026-05-09 16:22 -7.19794 -35.98651 2952 ft 163 kts 175°
2026-05-09 16:23 -7.20686 -35.98221 2686 ft 131 kts 133°
2026-05-09 16:23 -7.21226 -35.97507 2450 ft 126 kts 121°
2026-05-09 16:23 -7.21711 -35.96839 2468 ft 116 kts 121°
2026-05-09 16:23 -7.22177 -35.96219 2559 ft 114 kts 129°
2026-05-09 16:24 -7.22685 -35.95619 2601 ft 113 kts 124°
2026-05-09 16:24 -7.23163 -35.95025 2692 ft 111 kts 128°
2026-05-09 16:24 -7.23610 -35.94355 2644 ft 120 kts 124°
2026-05-09 16:24 -7.24114 -35.93676 2490 ft 122 kts 124°
2026-05-09 16:25 -7.24631 -35.93017 2396 ft 118 kts 120°
2026-05-09 16:25 -7.25044 -35.92319 2339 ft 110 kts 118°
2026-05-09 16:25 -7.25461 -35.91708 2221 ft 102 kts 126°
2026-05-09 16:25 -7.25893 -35.91120 1988 ft 106 kts 119°
2026-05-09 16:26 -7.26320 -35.90499 1809 ft 107 kts 123°
2026-05-09 16:26 -7.26716 -35.89949 1656 ft 80 kts 123°
2026-05-09 16:26 -7.26939 -35.89631 1654 ft 33 kts 124°
2026-05-09 16:26 -7.27012 -35.89528 1655 ft 10 kts 123°
2026-05-09 16:27 -7.27031 -35.89487 1652 ft 3 kts 89°
2026-05-09 16:27 -7.27015 -35.89465 1655 ft 7 kts 34°
2026-05-09 16:27 -7.26956 -35.89447 1653 ft 12 kts 309°
2026-05-09 16:27 -7.26895 -35.89461 1653 ft 8 kts 38°
2026-05-09 16:28 -7.26897 -35.89445 1652 ft 2 kts 126°
2026-05-09 16:28 -7.26898 -35.89442 1652 ft 0 kts 126°